Regional Weather Roundup
Issued by NWS

Home | Current Version | Previous Version | Graphics & Text | Print | Product List | Glossary On
Versions: 1 2 3 4 5 6 7 8 9 10 11 12 13 14 15 16 17 18 19 20 21 22 23 24 25 26 27 28 29 30 31 32 33 34 35 36 37 38 39 40 41 42 43 44 45 46 47 48 49 50
000
ASUS43 KMPX 240001
RWRMN
WEATHER ROUNDUP FOR MINNESOTA
NATIONAL WEATHER SERVICE TWIN CITIES/CHANHASSEN MN
700 PM CDT FRI JUN 23 2017


NOTE: "FAIR" INDICATES FEW OR NO CLOUDS BELOW 12,000 FEET WITH NO
SIGNIFICANT WEATHER AND/OR OBSTRUCTIONS TO VISIBILITY. N/A MEANS
CURRENT SKY AND/OR WEATHER CONDITIONS ARE NOT AVAILABLE.

MNZ060>063-068>070-240100-
   Twin Cities Metro

CITY           SKY/WX    TMP DP  RH WIND       PRES   REMARKS
TWIN CITIES    PTSUNNY   69  50  50 NW17G26   29.84R
6HR MIN TEMP:  68; 6HR MAX TEMP:  74;

ST PAUL        CLOUDY    68  52  56 NW21      29.84R
CRYSTAL        CLOUDY    68  49  50 NW18G25   29.84R
BLAINE         PTSUNNY   70  52  52 W15G24    29.84R
LAKEVILLE      CLOUDY    66  52  59 W15G22    29.86R
EDEN PRAIRIE   CLOUDY    70  50  49 W17G24    29.85R
6HR MIN TEMP:  69; 6HR MAX TEMP:  74;

SOUTH ST PAUL  CLOUDY    67  55  64 W7        29.84R
LAKE ELMO      PTSUNNY   68  55  64 NW14      29.85R
$$
MNZ001>005-007-008-013>017-022>024-027-028-240100-
   Northwest Minnesota

CITY           SKY/WX    TMP DP  RH WIND       PRES   REMARKS
BEMIDJI        CLOUDY    57  48  71 NW18      29.89R
HALLOCK        CLOUDY    61  46  59 NW13      29.90S
ROSEAU           N/A     57  48  72 NW15G24   29.88R
WARROAD        PTSUNNY   55  52  88 W9        29.87S
CROOKSTON      PTSUNNY   63  45  51 NW21      29.92R
FOSSTON        CLOUDY    57  46  67 NW8       29.91R
DETROIT LAKES  SUNNY     63  41  45 NW20G25   29.92S
MOORHEAD       PTSUNNY   64  39  39 NW20      29.93R
PARK RAPIDS    CLOUDY    60  44  55 NW18      29.89R
MAHNOMEN       CLOUDY    62  46  54 NW14G20   29.90S
$$
MNZ006-009>011-018-025>026-240100-
   North Central Minnesota

CITY           SKY/WX    TMP DP  RH WIND       PRES   REMARKS
BAUDETTE       CLOUDY    56  50  80 W15G25    29.84R
FLAG ISLAND    CLOUDY    55  50  82 NW23      29.83R
INTL FALLS     CLOUDY    60  52  74 W14G26    29.79R
6HR MIN TEMP:  59; 6HR MAX TEMP:  69; 6HR PCP:  0.01;

WASKISH        CLOUDY    57  50  77 W15G24    29.86R
BIG FORK       PTSUNNY   61  50  67 W8        29.82R
LONGVILLE      CLOUDY    59  48  67 NW9G17    29.87R
GRAND RAPIDS   CLOUDY    60  52  74 NW23G31   29.84R
CRANE LAKE     PTSUNNY   59  50  72 NW7G23    29.78R
ORR            PTSUNNY   61  54  77 W15G22    29.77R
COOK           LGT RAIN  59  55  88 W12G17    29.79S
WALKER         CLOUDY    57  48  72 NW13      29.88R
$$
MNZ012-019>021-037-240100-
   Northeast Minnesota

CITY           SKY/WX    TMP DP  RH WIND       PRES   REMARKS
DULUTH         CLOUDY    61  52  72 NW13G22   29.77R
6HR MIN TEMP:  60; 6HR MAX TEMP:  70; 6HR PCP: TRACE;

ELY            PTSUNNY   63  52  67 W15       29.74R
HIBBING        CLOUDY    59  51  75 NW18G26   29.80R
EVELETH        PTSUNNY   63  48  58 W20G29    29.79R
DULUTH HARBOR  CLOUDY    64  55  72 NW17      29.77R
TWO HARBORS    MOSUNNY   70  54  56 NW9       29.72R
SILVER BAY     PTSUNNY   70  50  49 NW6       29.71R
GRAND MARAIS     N/A     67  52  58 N8G17     29.68R
G MARAIS ARPRT DRIZZLE   55  48  76 NW5       29.71F
$$
MNZ029>031-032-039>041-046>048-054>057-064-240100-
   West Central Minnesota

CITY           SKY/WX    TMP DP  RH WIND       PRES   REMARKS
FERGUS FALLS   PTSUNNY   63  45  51 N16       29.91S
WHEATON        PTSUNNY   64  39  39 NW13G20   29.96S
MORRIS         PTSUNNY   66  46  48 NW18      29.93S
ALEXANDRIA     PTSUNNY   62  47  57 NW17G24   29.94R
ELBOW LAKE     CLOUDY    62  46  54 W16G22    29.94S
WADENA         CLOUDY    61  46  59 NW12      29.90S
GLENWOOD       CLOUDY    63  48  59 NW18      29.93R
APPLETON       MOSUNNY   66  45  45 NW15G21   29.94S
BENSON         PTSUNNY   66  46  48 N17       29.96R
ORTONVILLE     PTSUNNY   66  41  39 NW13G25   29.95S
MADISON        MOSUNNY   66  48  52 NW12      29.96S
WILLMAR        FAIR      66  52  59 NW18G24   29.94S
$$
MNZ033>034-036-042>043-049>051-058-059-240100-
   Central Minnesota

CITY           SKY/WX    TMP DP  RH WIND       PRES   REMARKS
ST CLOUD       CLOUDY    67  50  54 NW20G28   29.86R
6HR MIN TEMP:  64; 6HR MAX TEMP:  71; 6HR PCP: TRACE;

SAUK CENTRE    CLOUDY    63  49  59 NW20G25   29.91R
PAYNESVILLE    CLOUDY    64  48  56 NW12G25   29.92R
AITKIN         CLOUDY    63  55  77 W10G17    29.82S
PINE RIVER     CLOUDY    61  50  67 NW8G17    29.91R
BRAINERD       PTSUNNY   62  47  57 NW21G28   29.87R
STAPLES        CLOUDY    61  46  59 NW14G21   29.90R
LONG PRAIRIE   CLOUDY    61  46  59 W16G22    29.91R
LITTLE FALLS   CLOUDY    63  46  55 NW13G21   29.89R
LITCHFIELD     PTSUNNY   66  54  63 NW14G29   29.91R
BUFFALO        CLOUDY    67  49  51 W14G22    29.88R
MAPLE LAKE     CLOUDY    66  53  61 W13G21    29.88R
HUTCHINSON     PTSUNNY   66  52  59 W16G26    29.91R
$$
MNZ037-044-045-052-053-240100-
   East Central Minnesota

CITY           SKY/WX    TMP DP  RH WIND       PRES   REMARKS
PRINCETON      CLOUDY    68  52  56 W13G22    29.85R
MORA           CLOUDY    61  50  67 N6        29.85R
CAMBRIDGE      CLOUDY    68  54  60 NW8       29.83R
RUSH CITY      MOSUNNY   64  54  68 N13G20    29.84R
MOOSE LAKE     PTSUNNY   63  52  67 W9        29.79S
HINCKLEY       LGT RAIN  61  54  77 NW9       29.82R
CLOQUET        CLOUDY    57  54  88 W5        29.79S
MCGREGOR       CLOUDY    61  54  77 NW8       29.83R
$$
MNZ071>073-080-081-089-090-097-098-240100-
   Southwest Minnesota

CITY           SKY/WX    TMP DP  RH WIND       PRES   REMARKS
MONTEVIDEO     MOSUNNY   66  48  52 N13G23    29.95R
GRANITE FALLS  PTSUNNY   67  49  52 W20G26    29.97R
CANBY          MOSUNNY   65  47  51 W13G20    29.98S
MARSHALL       PTSUNNY   65  50  58 NW16      29.97R
REDWOOD FALLS  MOSUNNY   66  49  54 NW12G23   29.93R
OLIVIA         CLOUDY    68  50  52 NW14G22   29.92S
PIPESTONE      MOSUNNY   64  45  48 NW15G22   30.00R
WINDOM         MOSUNNY   64  46  52 W17G25    29.97R
WORTHINGTON    MOSUNNY   64  49  57 NW17G25   29.99R
JACKSON        PTSUNNY   64  50  59 NW18G26   29.97R
TRACY          CLOUDY    65  50  57 NW17G25   29.97S
SLAYTON        PTSUNNY   63  48  57 NW18G24   29.99R
$$
MNZ065>067-074>077-082>085-091>093-240100-
   South Central Minnesota

CITY           SKY/WX    TMP DP  RH WIND       PRES   REMARKS
MANKATO        MOSUNNY   68  51  54 NW22G30   29.90R
NEW ULM        PTSUNNY   66  48  52 NW16G25   29.92R
ST JAMES       CLOUDY    66  52  59 W18G24    29.94R
FAIRMONT       MOSUNNY   66  51  58 NW20G25   29.94R
GLENCOE        CLOUDY    67  55  64 W14G24    29.89R
FARIBAULT      PTSUNNY   66  55  68 W13G20    29.88R
OWATONNA       CLOUDY    66  54  63 W14G25    29.88R
WASECA         PTSUNNY   68  52  56 W16G23    29.90R
ALBERT LEA     MOSUNNY   66  52  59 NW10G25   29.89S
$$
MNZ078>079-086>088-094>096-240100-
   Southeast Minnesota

CITY           SKY/WX    TMP DP  RH WIND       PRES   REMARKS
ROCHESTER      PTSUNNY   65  55  70 NW18G24   29.87R
6HR MIN TEMP:  64; 6HR MAX TEMP:  70;

RED WING       PTSUNNY   68  52  56 NW6       29.82R
STANTON        PTSUNNY   69  55  59 W17       29.84R
DODGE CENTER   CLOUDY    63  54  72 W14       29.88R
WINONA         CLOUDY    70  52  52 NW12      29.82R
AUSTIN         PTSUNNY   66  54  63 NW15G23   29.88R
PRESTON        PTSUNNY   65  53  64 NW18      29.87R
$$
ABBREVIATIONS USED IN REMARKS
   TC - TEMPERATURES IN CELSIUS
  WCI - WIND CHILL INDEX
   HX - HEAT INDEX
  VSB - VISIBILITY
$$




USA.gov is the U.S. government's official web portal to all federal, state and local government web resources and services.